EZY1MK ESGG-EKCH

Flight info

Callsign EZY1MK
Flight time N/A
Altitude 17000
Route TOPLA L996 ERNOV
Aircraft A20N/M-SDE2E3FGHIRWXY/LB1

Departure

Time N/A
Airport Göteborg Landvetter Airport (ESGG)

Arrival

Time 2026-04-24 20:10
Airport Copenhagen Kastrup Airport (EKCH)
Time Latitude Longitude Altitude Speed Heading
2026-04-24 19:50 56.74602 12.43517 16940 ft 411 kts 176°
2026-04-24 19:50 56.71772 12.44208 16948 ft 410 kts 176°
2026-04-24 19:51 56.66195 12.45574 16557 ft 396 kts 176°
2026-04-24 19:51 56.63474 12.46239 16295 ft 393 kts 176°
2026-04-24 19:52 56.58060 12.47549 15786 ft 391 kts 176°
2026-04-24 19:52 56.55368 12.48198 15538 ft 390 kts 176°
2026-04-24 19:52 56.52684 12.48845 15291 ft 388 kts 176°
2026-04-24 19:52 56.50014 12.49488 15041 ft 387 kts 176°
2026-04-24 19:53 56.47352 12.50129 14793 ft 385 kts 176°
2026-04-24 19:53 56.44700 12.50767 14546 ft 384 kts 176°
2026-04-24 19:53 56.39412 12.52033 14079 ft 382 kts 176°
2026-04-24 19:54 56.36786 12.52659 13798 ft 380 kts 176°
2026-04-24 19:54 56.34175 12.53281 13287 ft 378 kts 176°
2026-04-24 19:54 56.31579 12.53899 12809 ft 374 kts 176°
2026-04-24 19:54 56.29010 12.54510 12350 ft 371 kts 176°
2026-04-24 19:55 56.27328 12.54910 12130 ft 365 kts 176°
2026-04-24 19:55 56.24025 12.55697 11867 ft 350 kts 176°
2026-04-24 19:55 56.21645 12.56262 11707 ft 339 kts 176°
2026-04-24 19:55 56.19340 12.56809 11495 ft 330 kts 176°
2026-04-24 19:56 56.17079 12.57284 11191 ft 324 kts 180°
2026-04-24 19:56 56.14844 12.57426 10852 ft 320 kts 183°
2026-04-24 19:56 56.12629 12.57455 10509 ft 317 kts 184°
2026-04-24 19:56 56.10430 12.57467 10158 ft 315 kts 184°
2026-04-24 19:57 56.08250 12.57480 9997 ft 312 kts 184°
2026-04-24 19:57 56.06073 12.57495 9969 ft 313 kts 184°
2026-04-24 19:57 56.03896 12.57512 9973 ft 313 kts 184°
2026-04-24 19:57 56.01713 12.57532 9975 ft 313 kts 183°
2026-04-24 19:58 55.99537 12.57552 9971 ft 313 kts 183°
2026-04-24 19:58 55.97361 12.57573 9972 ft 313 kts 183°
2026-04-24 19:58 55.95189 12.57594 9972 ft 312 kts 183°
2026-04-24 19:58 55.93014 12.57616 9953 ft 312 kts 183°
2026-04-24 19:59 55.90839 12.57637 9970 ft 313 kts 183°
2026-04-24 19:59 55.88661 12.57655 9969 ft 313 kts 184°
2026-04-24 19:59 55.86526 12.57192 9975 ft 307 kts 200°
2026-04-24 19:59 55.84502 12.56041 9972 ft 304 kts 205°
2026-04-24 20:00 55.82515 12.54748 9967 ft 304 kts 205°
2026-04-24 20:00 55.80521 12.53432 9747 ft 307 kts 205°
2026-04-24 20:00 55.78512 12.52114 9332 ft 306 kts 205°
2026-04-24 20:00 55.76533 12.50828 9001 ft 300 kts 205°
2026-04-24 20:01 55.74587 12.49568 8508 ft 296 kts 205°
2026-04-24 20:01 55.72683 12.48338 7958 ft 294 kts 205°
2026-04-24 20:01 55.70740 12.47084 7428 ft 292 kts 205°
2026-04-24 20:01 55.68866 12.45877 6899 ft 290 kts 205°
2026-04-24 20:02 55.67592 12.45057 6555 ft 288 kts 204°
2026-04-24 20:02 55.65109 12.43462 5840 ft 284 kts 204°
2026-04-24 20:02 55.63261 12.42276 5334 ft 281 kts 204°
2026-04-24 20:02 55.61434 12.41102 4830 ft 278 kts 205°
2026-04-24 20:03 55.59737 12.39591 4322 ft 269 kts 219°
2026-04-24 20:03 55.58287 12.37574 3840 ft 263 kts 224°
2026-04-24 20:03 55.56914 12.35470 3362 ft 259 kts 225°
2026-04-24 20:03 55.55575 12.33392 2915 ft 254 kts 224°
2026-04-24 20:04 55.54240 12.31342 2485 ft 256 kts 222°
2026-04-24 20:04 55.52635 12.29956 2103 ft 261 kts 193°
2026-04-24 20:04 55.50857 12.30154 1978 ft 255 kts 162°
2026-04-24 20:04 55.49429 12.31806 1974 ft 240 kts 134°
2026-04-24 20:05 55.48440 12.34029 1995 ft 223 kts 126°
2026-04-24 20:05 55.47575 12.36285 1982 ft 222 kts 125°
2026-04-24 20:05 55.46845 12.38672 1981 ft 222 kts 104°
2026-04-24 20:05 55.46960 12.41297 1979 ft 215 kts 59°
2026-04-24 20:06 55.47921 12.43215 1980 ft 209 kts 34°
2026-04-24 20:06 55.49067 12.44770 1972 ft 204 kts 34°
2026-04-24 20:06 55.50122 12.46315 1976 ft 192 kts 36°
2026-04-24 20:06 55.51120 12.47855 1978 ft 190 kts 36°
2026-04-24 20:07 55.51766 12.48857 1968 ft 179 kts 36°
2026-04-24 20:07 55.52922 12.50641 1724 ft 156 kts 35°
2026-04-24 20:07 55.53715 12.51857 1454 ft 146 kts 35°
2026-04-24 20:07 55.54461 12.52997 1211 ft 139 kts 35°
2026-04-24 20:08 55.55197 12.54105 1003 ft 139 kts 35°
2026-04-24 20:08 55.55920 12.55258 825 ft 140 kts 39°
2026-04-24 20:08 55.56642 12.56393 682 ft 139 kts 38°
2026-04-24 20:08 55.57381 12.57504 516 ft 140 kts 39°
2026-04-24 20:09 55.58108 12.58644 313 ft 140 kts 39°
2026-04-24 20:09 55.58836 12.59769 116 ft 138 kts 39°
2026-04-24 20:09 55.59558 12.60891 47 ft 138 kts 40°
2026-04-24 20:09 55.60223 12.61904 23 ft 108 kts 40°
2026-04-24 20:10 55.60651 12.62560 25 ft 55 kts 41°
2026-04-24 20:10 55.60939 12.62849 22 ft 48 kts 15°
2026-04-24 20:10 55.61141 12.62952 26 ft 23 kts 35°
2026-04-24 20:10 55.61259 12.63127 27 ft 29 kts 41°